Location: Vihti�l�
(61.3833°N, 23.0667°E)
Time: 05:15:55
(UTC+00:00)

SJ-7 - Pass Details

Date: 29 November 2020
Orbit: 556 x 601 km, 97.7° (Epoch: 22 January)

Event Time Altitude Azimuth Distance (km) Brightness Sun altitude
Rises 04:50:29 0° 16° (NNE) 2,772 7.9 -14.8°
Reaches altitude 10° 04:52:37 10° 16° (NNE) 1,876 7.0 -14.6°
Maximum altitude 04:56:41 82° 290° (WNW) 584 4.3 -14.1°
Drops below altitude 10° 05:00:46 10° 202° (SSW) 1,887 7.0 -13.7°
Sets 05:02:55 0° 202° (SSW) 2,789 7.9 -13.4°
